When you browse on this site, cookies collect data to enhance your experience and personalize the content and advertising you see.
Visit our Privacy Policy to learn more. By continuing to use the site, you agree to this use of cookies and data.
  • In Österreich
  • Länderverzeichnis
  • Für 7 Tage
  • Wassertemperatur
  • Satellitenkarten
  • Wetterkarte
  • News
  • Widgets
  • user-avatar
    Anmelden

    Stündliche Wetter Ordino

    Heute, 16 Februar, Samstag

    Zeit Temperatur Niederschläge Wind Luftdruck Luftfeuchtigkeit
    00:00 +2°C° 0 mm 1 m/S 637 mmHg 44%
    01:00 +2°C° 0 mm 1 m/S 637 mmHg 42%
    02:00 +2°C° 0 mm 1 m/S 637 mmHg 40%
    03:00 +2°C° 0 mm 1 m/S 637 mmHg 38%
    04:00 +2°C° 0 mm 1 m/S 637 mmHg 36%
    05:00 +1°C° 0 mm 1 m/S 637 mmHg 35%
    06:00 +1°C° 0 mm 1 m/S 637 mmHg 35%
    07:00 +3°C° 0 mm 1 m/S 638 mmHg 37%
    08:00 +4°C° 0 mm 2 m/S 639 mmHg 39%
    09:00 +6°C° 0 mm 2 m/S 639 mmHg 41%
    10:00 +7°C° 0 mm 2 m/S 640 mmHg 40%
    11:00 +9°C° 0 mm 2 m/S 640 mmHg 39%
    12:00 +10°C° 0 mm 2 m/S 641 mmHg 38%
    13:00 +10°C° 0 mm 2 m/S 640 mmHg 39%
    14:00 +10°C° 0 mm 2 m/S 640 mmHg 39%
    15:00 +9°C° 0 mm 2 m/S 639 mmHg 40%
    16:00 +7°C° 0 mm 2 m/S 638 mmHg 42%
    17:00 +4°C° 0 mm 2 m/S 637 mmHg 45%
    18:00 +1°C° 0 mm 2 m/S 636 mmHg 47%
    19:00 +1°C° 0 mm 2 m/S 636 mmHg 45%
    20:00 +1°C° 0 mm 2 m/S 636 mmHg 43%
    21:00 +1°C° 0 mm 2 m/S 636 mmHg 41%
    22:00 +1°C° 0 mm 2 m/S 636 mmHg 42%
    23:00 +1°C° 0 mm 2 m/S 636 mmHg 42%

    Morgen, 17 Februar, Sonntag

    Zeit Temperatur Niederschläge Wind Luftdruck Luftfeuchtigkeit
    00:00 +1°C° 0 mm 2 m/S 636 mmHg 42%
    01:00 +1°C° 0 mm 2 m/S 635 mmHg 41%
    02:00 -1°C° 0 mm 2 m/S 635 mmHg 40%
    03:00 -1°C° 0 mm 2 m/S 635 mmHg 39%
    04:00 -1°C° 0 mm 2 m/S 635 mmHg 39%
    05:00 -1°C° 0 mm 2 m/S 635 mmHg 39%
    06:00 -1°C° 0 mm 2 m/S 635 mmHg 38%
    07:00 +2°C° 0 mm 2 m/S 635 mmHg 38%
    08:00 +4°C° 0 mm 2 m/S 636 mmHg 38%
    09:00 +5°C° 0 mm 2 m/S 637 mmHg 37%
    10:00 +7°C° 0 mm 2 m/S 637 mmHg 35%
    11:00 +8°C° 0 mm 2 m/S 637 mmHg 33%
    12:00 +9°C° 0 mm 3 m/S 637 mmHg 31%
    13:00 +9°C° 0 mm 3 m/S 637 mmHg 33%
    14:00 +9°C° 0 mm 2 m/S 636 mmHg 34%
    15:00 +8°C° 0 mm 2 m/S 636 mmHg 35%
    16:00 +6°C° 0 mm 2 m/S 635 mmHg 41%
    17:00 +3°C° 0 mm 2 m/S 634 mmHg 47%
    18:00 +1°C° 0 mm 2 m/S 633 mmHg 53%
    19:00 +1°C° 0 mm 2 m/S 633 mmHg 54%
    20:00 -1°C° 0 mm 2 m/S 633 mmHg 55%
    21:00 -1°C° 0 mm 2 m/S 633 mmHg 56%
    22:00 -1°C° 0 mm 2 m/S 633 mmHg 57%
    23:00 -1°C° 0 mm 2 m/S 633 mmHg 58%

    übermorgen, 18 Februar, Montag

    Zeit Temperatur Niederschläge Wind Luftdruck Luftfeuchtigkeit
    00:00 -1°C° 0 mm 2 m/S 633 mmHg 58%
    01:00 -1°C° 0 mm 2 m/S 632 mmHg 56%
    02:00 -1°C° 0 mm 2 m/S 632 mmHg 54%
    03:00 -1°C° 0 mm 2 m/S 632 mmHg 51%
    04:00 -1°C° 0 mm 2 m/S 632 mmHg 50%
    05:00 -1°C° 0 mm 2 m/S 632 mmHg 48%
    06:00 -1°C° 0 mm 2 m/S 631 mmHg 47%
    07:00 +2°C° 0 mm 2 m/S 632 mmHg 43%
    08:00 +3°C° 0 mm 2 m/S 633 mmHg 40%
    09:00 +4°C° 0 mm 3 m/S 634 mmHg 36%
    10:00 +5°C° 0 mm 3 m/S 634 mmHg 33%
    11:00 +7°C° 0 mm 3 m/S 634 mmHg 29%
    12:00 +8°C° 0 mm 3 m/S 635 mmHg 26%
    13:00 +8°C° 0 mm 3 m/S 634 mmHg 28%
    14:00 +8°C° 0 mm 3 m/S 634 mmHg 29%
    15:00 +8°C° 0 mm 2 m/S 634 mmHg 31%
    16:00 +5°C° 0 mm 2 m/S 633 mmHg 40%
    17:00 +3°C° 0 mm 2 m/S 632 mmHg 48%
    18:00 +1°C° 0 mm 2 m/S 632 mmHg 57%
    19:00 +2°C° 0 mm 1 m/S 632 mmHg 58%
    20:00 +1°C° 0 mm 1 m/S 632 mmHg 58%
    21:00 +1°C° 0 mm 1 m/S 632 mmHg 59%
    22:00 +1°C° 0 mm 1 m/S 632 mmHg 59%
    23:00 +1°C° 0 mm 1 m/S 632 mmHg 58%

    19 Februar, Dienstag

    Zeit Temperatur Niederschläge Wind Luftdruck Luftfeuchtigkeit
    00:00 +1°C° 0 mm 1 m/S 633 mmHg 57%
    01:00 +1°C° 0 mm 1 m/S 633 mmHg 54%
    02:00 +1°C° 0 mm 1 m/S 633 mmHg 51%
    03:00 +1°C° 0 mm 1 m/S 632 mmHg 47%
    04:00 +1°C° 0 mm 1 m/S 633 mmHg 45%
    05:00 +1°C° 0 mm 1 m/S 633 mmHg 43%
    06:00 +1°C° 0 mm 1 m/S 633 mmHg 41%
    07:00 +2°C° 0 mm 1 m/S 634 mmHg 38%
    08:00 +4°C° 0 mm 1 m/S 635 mmHg 35%
    09:00 +6°C° 0 mm 1 m/S 635 mmHg 32%
    10:00 +7°C° 0 mm 1 m/S 636 mmHg 31%
    11:00 +8°C° 0 mm 1 m/S 636 mmHg 29%
    12:00 +9°C° 0 mm 1 m/S 636 mmHg 28%
    13:00 +9°C° 0 mm 1 m/S 636 mmHg 30%
    14:00 +9°C° 0 mm 1 m/S 635 mmHg 32%
    15:00 +9°C° 0 mm 1 m/S 635 mmHg 34%
    16:00 +6°C° 0 mm 1 m/S 634 mmHg 43%
    17:00 +4°C° 0 mm 1 m/S 634 mmHg 53%
    18:00 +2°C° 0 mm 1 m/S 633 mmHg 62%
    19:00 +2°C° 0 mm 1 m/S 633 mmHg 60%
    20:00 +2°C° 0 mm 1 m/S 633 mmHg 58%
    21:00 +1°C° 0 mm 1 m/S 634 mmHg 56%
    22:00 +1°C° 0 mm 1 m/S 634 mmHg 54%
    23:00 +1°C° 0 mm 1 m/S 634 mmHg 52%

    20 Februar, Mittwoch

    Zeit Temperatur Niederschläge Wind Luftdruck Luftfeuchtigkeit
    00:00 +1°C° 0 mm 1 m/S 634 mmHg 50%
    01:00 +1°C° 0 mm 1 m/S 633 mmHg 50%
    02:00 +1°C° 0 mm 1 m/S 633 mmHg 49%
    03:00 +1°C° 0 mm 1 m/S 633 mmHg 49%
    04:00 +1°C° 0 mm 1 m/S 634 mmHg 48%
    05:00 +1°C° 0 mm 1 m/S 634 mmHg 48%
    06:00 +1°C° 0 mm 1 m/S 634 mmHg 47%
    07:00 +3°C° 0 mm 1 m/S 635 mmHg 43%
    08:00 +4°C° 0 mm 0 m/S 636 mmHg 39%
    09:00 +6°C° 0 mm 0 m/S 637 mmHg 35%
    10:00 +7°C° 0 mm 0 m/S 637 mmHg 34%
    11:00 +9°C° 0 mm 1 m/S 638 mmHg 33%
    12:00 +10°C° 0 mm 1 m/S 638 mmHg 31%
    13:00 +10°C° 0 mm 1 m/S 637 mmHg 34%
    14:00 +10°C° 0 mm 1 m/S 637 mmHg 37%
    15:00 +10°C° 0 mm 1 m/S 637 mmHg 40%
    16:00 +7°C° 0 mm 1 m/S 636 mmHg 51%
    17:00 +5°C° 0 mm 1 m/S 635 mmHg 61%
    18:00 +2°C° 0 mm 0 m/S 635 mmHg 72%
    19:00 +2°C° 0 mm 0 m/S 635 mmHg 71%
    20:00 +1°C° 0 mm 0 m/S 635 mmHg 71%
    21:00 +2°C° 0 mm 1 m/S 636 mmHg 71%
    22:00 +2°C° 0 mm 1 m/S 636 mmHg 69%
    23:00 +2°C° 0 mm 1 m/S 636 mmHg 67%

    21 Februar, Donnerstag

    Zeit Temperatur Niederschläge Wind Luftdruck Luftfeuchtigkeit
    00:00 +2°C° 0 mm 1 m/S 636 mmHg 66%
    01:00 +2°C° 0 mm 1 m/S 636 mmHg 63%
    02:00 +2°C° 0 mm 1 m/S 636 mmHg 61%
    03:00 +2°C° 0 mm 1 m/S 636 mmHg 58%
    04:00 +2°C° 0 mm 1 m/S 636 mmHg 55%
    05:00 +2°C° 0 mm 1 m/S 636 mmHg 53%
    06:00 +2°C° 0 mm 1 m/S 636 mmHg 50%
    07:00 +4°C° 0 mm 1 m/S 637 mmHg 45%
    08:00 +6°C° 0 mm 1 m/S 637 mmHg 40%
    09:00 +7°C° 0 mm 0 m/S 638 mmHg 35%
    10:00 +9°C° 0 mm 1 m/S 639 mmHg 34%
    11:00 +10°C° 0 mm 1 m/S 639 mmHg 32%
    12:00 +11°C° 0 mm 1 m/S 639 mmHg 31%
    13:00 +11°C° 0 mm 1 m/S 639 mmHg 34%
    14:00 +11°C° 0 mm 1 m/S 639 mmHg 38%
    15:00 +11°C° 0 mm 1 m/S 638 mmHg 42%
    16:00 +8°C° 0 mm 1 m/S 638 mmHg 52%
    17:00 +6°C° 0 mm 1 m/S 637 mmHg 63%
    18:00 +4°C° 0 mm 1 m/S 636 mmHg 74%
    19:00 +4°C° 0 mm 1 m/S 636 mmHg 73%
    20:00 +3°C° 0 mm 1 m/S 637 mmHg 72%
    21:00 +3°C° 0 mm 1 m/S 637 mmHg 71%
    22:00 +3°C° 0 mm 1 m/S 637 mmHg 68%
    23:00 +3°C° 0 mm 1 m/S 637 mmHg 66%
    Mehr zeigen